Regional Weather Roundup
Issued by NWS

Home | Current Version | Previous Version | Graphics & Text | Print | Product List | Glossary On
Versions: 1 2 3 4 5 6 7 8 9 10 11 12 13 14 15 16 17 18 19 20 21 22 23 24 25 26 27 28 29 30 31 32 33 34 35 36 37 38 39 40 41 42 43 44 45 46 47 48 49 50
000
ASUS43 KFSD 252010
RWRSD

WEATHER ROUNDUP FOR SOUTH DAKOTA
NATIONAL WEATHER SERVICE SIOUX FALLS SD
200 PM CST TUE NOV 25 2014

NOTE: "FAIR" INDICATES FEW OR NO CLOUDS BELOW 12,000 FEET WITH NO
SIGNIFICANT WEATHER AND/OR OBSTRUCTIONS TO VISIBILITY.


SDZ001>005-009-010-012>017-252100-
NORTHWEST AND NORTH CENTRAL SOUTH DAKOTA

CITY           SKY/WX    TMP DP  RH WIND       PRES   REMARKS
BUFFALO          N/A     37  32  82 NW29G37   29.66S
FAITH            N/A     33  30  88 SW14      29.72F WCI  23
MOBRIDGE       LGT SNOW  35  29  78 SE12      29.72F WCI  27
$$

SDZ012>016-024>037-041>051-057-063-072>074-252100-
SOUTHWEST AND SOUTH CENTRAL SOUTH DAKOTA

CITY           SKY/WX    TMP DP  RH WIND       PRES   REMARKS
RAPID CTY ARPT CLOUDY    37  31  78 NW9       29.75F
PIERRE         CLOUDY    34  28  79 E8        29.76F WCI  27
CUSTER         CLOUDY    31  23  72 W12       29.73S WCI  22
ELLSWORTH AFB  LGT RAIN  37  32  81 NW13      29.75
PHILIP         CLOUDY    39  23  52 W10       29.76F
PINE RIDGE     CLOUDY    38  25  59 W13G18    29.78F
SPEARFISH      LGT RAIN  34  30  86 W20G26    29.77R WCI  22
WINNER         CLOUDY    40  23  50 SW10      29.79F
$$

SDZ004>011-016>023-039-040-252100-
NORTHEAST SOUTH DAKOTA

CITY           SKY/WX    TMP DP  RH WIND       PRES   REMARKS
ABERDEEN       CLOUDY    32  26  78 S10       29.86F WCI  24
WATERTOWN      CLOUDY    30  22  72 S9        29.86F WCI  22
SISSETON         N/A     29  22  75 S9        29.89F WCI  20
$$

SDZ017-020-022-023-036>040-048>070-252100-
SOUTHEAST SOUTH DAKOTA

CITY           SKY/WX    TMP DP  RH WIND       PRES   REMARKS
SIOUX FALLS    CLOUDY    36  20  52 S12       29.92F
HURON          CLOUDY    35  25  66 SE10      29.85F WCI  27
CHAMBERLAIN    CLOUDY    38  26  61 S9        29.80F
MITCHELL       CLOUDY    39  27  62 SE9       29.87F
YANKTON        PTSUNNY   43  27  52 S8        29.91F
$$

ABBREVIATIONS USED IN REMARKS
   TC - TEMPERATURE IN CELSIUS
  WCI - WIND CHILL INDEX
   HX - HEAT INDEX
  VSB - VISIBILITY



USA.gov is the U.S. government's official web portal to all federal, state and local government web resources and services.